Date String (YYYY-MM-DD hh:mm:ss) UTC,Instrument flags,absolute air pressure of the measurement (hPa),sample flow rate (lpm),inlet stack bypass flow (lpm),air temperature of the measurement (°C),ambient temperature measured by the external sensor (°C),aerosol sample conditioner tube jacket temperature (°C),OPC LED temperature (°C),internal box temperature (°C),relative humidity of the measurement (%),span deviation,mass concentration of particles derived from Lorenz-Mie calculation of OPC scattering (μg/m³),mass concentration of particles derived from Lorenz-Mie calculation of OPC scattering (μg/m³),mass concentration of particles derived from Lorenz-Mie calculation of OPC scattering (μg/m³)
DateTimeUTC,F1_M11,P_M11,Q1_M11,Q2_M11,T1_M11,T2_M11,T3_M11,T4_M11,T5_M11,U1_M11,ZSPAN_M11,X0_M11,X2_M11,X1_M11
2023-10-25 10:00:00,SystemResetWarning,0827.2,4.99,000.00,028.8,027.2,000.0,037.2,030.4,17.6,0000.0,0032.09,0007.53,0004.56
2023-10-25 10:01:00,SystemResetWarning,0827.2,5.00,000.00,028.8,027.1,000.0,037.3,030.3,17.6,0000.0,0033.47,0007.56,0004.57
2023-10-25 10:02:00,SystemResetWarning,0827.2,5.00,000.00,028.8,027.1,000.0,037.2,030.4,17.6,0000.0,0034.59,0007.54,0004.57
2023-10-25 10:03:00,SystemResetWarning,0827.2,5.00,000.00,028.7,027.1,000.0,037.2,030.3,17.6,0000.0,0034.45,0007.51,0004.57
2023-10-25 10:04:00,SystemResetWarning,0827.1,5.00,000.00,028.7,027.1,000.0,037.2,030.3,17.6,0000.0,0032.92,0007.48,0004.57
2023-10-25 10:05:00,SystemResetWarning,0827.1,5.00,000.00,028.7,027.1,000.0,037.2,030.3,17.6,0000.0,0032.74,0007.38,0004.59
2023-10-25 10:06:00,SystemResetWarning,0827.1,5.00,000.00,028.7,027.1,000.0,037.2,030.3,17.6,0000.0,0032.48,0007.38,0004.59
2023-10-25 10:07:00,SystemResetWarning,0827.1,5.00,000.00,028.7,027.1,000.0,037.2,030.3,17.6,0000.0,0031.22,0007.34,0004.60
2023-10-25 10:08:00,SystemResetWarning,0827.1,5.00,000.00,028.7,027.1,000.0,037.2,030.3,17.7,0000.0,0029.90,0007.24,0004.60
2023-10-25 10:09:00,SystemResetWarning,0827.2,5.00,000.00,028.7,027.1,000.0,037.2,030.3,17.7,0000.0,0029.07,0007.11,0004.60
2023-10-25 10:10:00,SystemResetWarning,0827.3,5.00,000.00,028.7,027.1,000.0,037.2,030.3,17.7,0000.0,0027.24,0007.06,0004.59
2023-10-25 10:11:00,SystemResetWarning,0827.2,5.00,000.00,028.7,027.1,000.0,037.2,030.4,17.7,0000.0,0026.17,0006.97,0004.60
2023-10-25 10:12:00,SystemResetWarning,0827.2,5.00,000.00,028.7,027.1,000.0,037.2,030.4,17.7,0000.0,0024.91,0006.89,0004.59
2023-10-25 10:13:00,SystemResetWarning,0827.2,5.00,000.00,028.7,027.2,000.0,037.2,030.4,17.7,0000.0,0023.66,0006.79,0004.59
2023-10-25 10:14:00,SystemResetWarning,0827.2,5.00,000.00,028.7,027.2,000.0,037.2,030.4,17.8,0000.0,0023.97,0006.75,0004.58
2023-10-25 10:15:00,SystemResetWarning,0827.2,5.01,000.00,028.7,027.2,000.0,037.2,030.4,17.8,0000.0,0024.39,0006.66,0004.56
2023-10-25 10:16:00,SystemResetWarning,0827.2,5.00,000.00,028.7,027.2,000.0,037.2,030.3,17.9,0000.0,0024.03,0006.66,0004.55
2023-10-25 10:17:00,SystemResetWarning,0827.2,4.99,000.00,028.7,027.2,000.0,037.2,030.3,18.0,0000.0,0023.00,0006.63,0004.54
2023-10-25 10:18:00,SystemResetWarning,0827.2,4.98,000.00,028.7,027.2,000.0,037.2,030.4,18.0,0000.0,0023.57,0006.62,0004.51
2023-10-25 10:19:00,SystemResetWarning,0827.2,5.00,000.00,028.7,027.2,000.0,037.2,030.4,18.1,0000.0,0024.99,0006.67,0004.51
2023-10-25 10:20:00,SystemResetWarning,0827.2,5.01,000.00,028.7,027.2,000.0,037.2,030.4,18.2,0000.0,0027.14,0006.76,0004.50
2023-10-25 10:21:00,SystemResetWarning,0827.2,5.01,000.00,028.7,027.2,000.0,037.2,030.4,18.3,0000.0,0027.23,0006.72,0004.49
2023-10-25 10:22:00,SystemResetWarning,0827.2,4.99,000.00,028.7,027.2,000.0,037.2,030.4,18.3,0000.0,0026.62,0006.67,0004.47
2023-10-25 10:23:00,SystemResetWarning,0827.1,4.99,000.00,028.7,027.2,000.0,037.2,030.4,18.4,0000.0,0027.13,0006.62,0004.46
2023-10-25 10:24:00,SystemResetWarning,0827.2,4.99,000.00,028.7,027.2,000.0,037.2,030.4,18.6,0000.0,0027.26,0006.68,0004.45
2023-10-25 10:25:00,SystemResetWarning,0827.1,5.01,000.00,028.7,027.3,000.0,037.2,030.4,18.8,0000.0,0027.51,0006.67,0004.46
2023-10-25 10:26:00,SystemResetWarning,0827.2,5.01,000.00,028.8,027.3,000.0,037.2,030.4,19.0,0000.0,0027.43,0006.70,0004.45
2023-10-25 10:27:00,SystemResetWarning,0827.1,5.01,000.00,028.8,027.3,000.0,037.2,030.4,19.1,0000.0,0027.71,0006.73,0004.43
2023-10-25 10:28:00,SystemResetWarning,0827.1,5.00,000.00,028.8,027.3,000.0,037.2,030.4,19.2,0000.0,0028.77,0006.83,0004.43
2023-10-25 10:29:00,SystemResetWarning,0827.2,4.99,000.00,028.8,027.3,000.0,037.2,030.4,19.2,0000.0,0029.17,0006.85,0004.45
2023-10-25 10:30:00,SystemResetWarning,0827.2,5.00,000.00,028.8,027.3,000.0,037.2,030.4,19.2,0000.0,0028.72,0006.81,0004.45
2023-10-25 10:31:00,SystemResetWarning,0827.3,5.00,000.00,028.8,027.3,000.0,037.2,030.4,19.2,0000.0,0026.57,0006.78,0004.44
2023-10-25 10:32:00,SystemResetWarning,0827.3,5.00,000.00,028.8,027.3,000.0,037.2,030.4,19.2,0000.0,0025.82,0006.79,0004.44
2023-10-25 10:33:00,SystemResetWarning,0827.3,5.00,000.00,028.8,027.3,000.0,037.2,030.4,19.1,0000.0,0026.90,0006.87,0004.44
2023-10-25 10:34:00,SystemResetWarning,0827.4,5.00,000.00,028.8,027.3,000.0,037.2,030.4,19.0,0000.0,0026.08,0006.96,0004.46
2023-10-25 10:35:00,SystemResetWarning,0827.4,5.01,000.00,028.8,027.3,000.0,037.2,030.4,19.0,0000.0,0025.88,0007.03,0004.45
2023-10-25 10:36:00,SystemResetWarning,0827.3,5.00,000.00,028.8,027.3,000.0,037.2,030.4,19.1,0000.0,0025.36,0007.05,0004.46
2023-10-25 10:37:00,SystemResetWarning,0827.4,5.00,000.00,028.8,027.3,000.0,037.2,030.4,19.2,0000.0,0024.83,0007.12,0004.48
2023-10-25 10:38:00,SystemResetWarning,0827.4,5.00,000.00,028.8,027.3,000.0,037.2,030.4,19.2,0000.0,0024.54,0007.24,0004.50
2023-10-25 10:39:00,SystemResetWarning,0827.4,4.99,000.00,028.8,027.3,000.0,037.2,030.4,19.2,0000.0,0023.91,0007.22,0004.50
2023-10-25 10:40:00,SystemResetWarning,0827.4,5.00,000.00,028.8,027.3,000.0,037.2,030.4,19.1,0000.0,0024.44,0007.30,0004.48
2023-10-25 10:41:00,SystemResetWarning,0827.4,5.00,000.00,028.8,027.3,000.0,037.2,030.4,19.0,0000.0,0026.07,0007.42,0004.50
2023-10-25 10:42:00,SystemResetWarning,0827.4,5.00,000.00,028.8,027.3,000.0,037.2,030.4,19.0,0000.0,0026.53,0007.55,0004.51
2023-10-25 10:43:00,SystemResetWarning,0827.4,5.00,000.00,028.8,027.2,000.0,037.2,030.4,19.0,0000.0,0026.83,0007.69,0004.51
2023-10-25 10:44:00,SystemResetWarning,0827.4,5.00,000.00,028.8,027.3,000.0,037.2,030.4,19.0,0000.0,0026.86,0007.74,0004.51
2023-10-25 10:45:00,SystemResetWarning,0827.4,5.00,000.00,028.8,027.3,000.0,037.2,030.4,19.0,0000.0,0029.14,0007.71,0004.51
2023-10-25 10:46:00,SystemResetWarning,0827.4,5.00,000.00,028.8,027.3,000.0,037.2,030.4,19.0,0000.0,0029.48,0007.67,0004.52
2023-10-25 10:47:00,SystemResetWarning,0827.4,5.00,000.00,028.8,027.3,000.0,037.2,030.4,19.0,0000.0,0028.80,0007.70,0004.52
2023-10-25 10:48:00,SystemResetWarning,0827.4,5.00,000.00,028.8,027.3,000.0,037.2,030.4,18.9,0000.0,0028.58,0007.71,0004.52
2023-10-25 10:49:00,SystemResetWarning,0827.4,5.00,000.00,028.8,027.3,000.0,037.2,030.4,18.9,0000.0,0028.22,0007.68,0004.54
2023-10-25 10:50:00,SystemResetWarning,0827.4,5.00,000.00,028.8,027.3,000.0,037.2,030.4,19.0,0000.0,0027.65,0007.67,0004.55
2023-10-25 10:51:00,SystemResetWarning,0827.4,5.00,000.00,028.8,027.3,000.0,037.2,030.5,19.0,0000.0,0026.96,0007.56,0004.58
2023-10-25 10:52:00,SystemResetWarning,0827.4,5.00,000.00,028.8,027.3,000.0,037.2,030.4,19.0,0000.0,0024.85,0007.51,0004.60
2023-10-25 10:53:00,SystemResetWarning,0827.4,4.99,000.00,028.8,027.3,000.0,037.2,030.4,18.9,0000.0,0024.31,0007.39,0004.62
2023-10-25 10:54:00,SystemResetWarning,0827.4,4.99,000.00,028.8,027.3,000.0,037.2,030.4,18.9,0000.0,0024.62,0007.25,0004.65
2023-10-25 10:55:00,SystemResetWarning,0827.4,5.00,000.00,028.8,027.3,000.0,037.2,030.5,18.9,0000.0,0024.44,0007.14,0004.69
2023-10-25 10:56:00,SystemResetWarning,0827.4,5.01,000.00,028.8,027.3,000.0,037.2,030.4,18.9,0000.0,0022.16,0007.13,0004.72
2023-10-25 10:57:00,SystemResetWarning,0827.3,5.00,000.00,028.8,027.3,000.0,037.2,030.4,18.9,0000.0,0021.18,0007.11,0004.77
2023-10-25 10:58:00,SystemResetWarning,0827.4,5.00,000.00,028.8,027.3,000.0,037.2,030.4,18.9,0000.0,0021.42,0007.10,0004.80
2023-10-25 10:59:00,SystemResetWarning,0827.3,4.99,000.00,028.8,027.2,000.0,037.2,030.4,18.9,0000.0,0022.78,0007.02,0004.83
